EJU86ZG LPPT-LIMC

Flight info

Callsign EJU86ZG
Flight time 2h 10m
Altitude 38000
Route IXIDA DCT TOSDI DCT ZMR N976 DGO T429 GOSVI DCT TOPTU DCT TOU DCT GAI DCT MEN DCT NINUN DCT LATAM DCT ROMAM/N0441F390 DCT ETIDO DCT NEDRU DCT RILIP DCT EMMEF DCT LAPRI/N0436F380 DCT MOGBO/N0441F390 DCT TOP/N0366F250 M135 ASTIG
Aircraft A20N/M-SDE2E3FGHIRWXY/LB1

Departure

Time 2026-05-07 13:38
Airport Lisbon Humberto Delgado Airport (LPPT)

Arrival

Time 2026-05-07 15:49
Airport Milan Malpensa International Airport (LIMC)
Time Latitude Longitude Altitude Speed Heading
2026-05-07 13:00 38.76891 -9.13052 381 ft 0 kts 79°
2026-05-07 13:23 38.76889 -9.13068 380 ft 2 kts 79°
2026-05-07 13:23 38.76886 -9.13087 380 ft 2 kts 80°
2026-05-07 13:23 38.76883 -9.13106 380 ft 2 kts 63°
2026-05-07 13:24 38.76874 -9.13121 380 ft 2 kts 35°
2026-05-07 13:24 38.76860 -9.13128 380 ft 2 kts
2026-05-07 13:24 38.76846 -9.13127 380 ft 2 kts 342°
2026-05-07 13:24 38.76831 -9.13123 380 ft 2 kts 350°
2026-05-07 13:25 38.76810 -9.13117 380 ft 4 kts 344°
2026-05-07 13:25 38.76793 -9.13113 380 ft 2 kts 348°
2026-05-07 13:25 38.76778 -9.13109 380 ft 2 kts 348°
2026-05-07 13:25 38.76764 -9.13105 380 ft 2 kts 348°
2026-05-07 13:26 38.76749 -9.13101 380 ft 2 kts 348°
2026-05-07 13:26 38.76740 -9.13098 380 ft 0 kts 348°
2026-05-07 13:29 38.76746 -9.13100 380 ft 2 kts 348°
2026-05-07 13:29 38.76772 -9.13116 380 ft 5 kts 316°
2026-05-07 13:29 38.76782 -9.13146 380 ft 3 kts 273°
2026-05-07 13:29 38.76777 -9.13184 380 ft 4 kts 259°
2026-05-07 13:30 38.76770 -9.13231 380 ft 5 kts 258°
2026-05-07 13:30 38.76759 -9.13295 380 ft 9 kts 258°
2026-05-07 13:30 38.76738 -9.13378 380 ft 10 kts 234°
2026-05-07 13:30 38.76680 -9.13440 380 ft 11 kts 218°
2026-05-07 13:31 38.76646 -9.13533 380 ft 12 kts 258°
2026-05-07 13:31 38.76630 -9.13640 380 ft 12 kts 258°
2026-05-07 13:31 38.76611 -9.13752 380 ft 13 kts 258°
2026-05-07 13:31 38.76593 -9.13862 380 ft 10 kts 259°
2026-05-07 13:32 38.76579 -9.13957 380 ft 11 kts 255°
2026-05-07 13:32 38.76537 -9.14045 380 ft 12 kts 230°
2026-05-07 13:32 38.76496 -9.14132 380 ft 10 kts 258°
2026-05-07 13:32 38.76512 -9.14226 380 ft 11 kts 293°
2026-05-07 13:33 38.76537 -9.14300 380 ft 5 kts 292°
2026-05-07 13:33 38.76540 -9.14311 380 ft 0 kts 292°
2026-05-07 13:35 38.76541 -9.14315 380 ft 1 kts 292°
2026-05-07 13:36 38.76555 -9.14356 380 ft 7 kts 293°
2026-05-07 13:36 38.76577 -9.14417 380 ft 4 kts 312°
2026-05-07 13:36 38.76601 -9.14414 380 ft 0 kts 24°
2026-05-07 13:36 38.76602 -9.14414 380 ft 0 kts 24°
2026-05-07 13:37 38.76639 -9.14393 380 ft 26 kts 23°
2026-05-07 13:37 38.77044 -9.14175 381 ft 96 kts 22°
2026-05-07 13:37 38.77856 -9.13739 381 ft 154 kts 23°
2026-05-07 13:38 38.78931 -9.13160 711 ft 171 kts 23°
2026-05-07 13:38 38.79971 -9.12428 1305 ft 174 kts 29°
2026-05-07 13:38 38.81026 -9.11603 1818 ft 185 kts 30°
2026-05-07 13:38 38.82167 -9.10721 2285 ft 199 kts 29°
2026-05-07 13:39 38.83401 -9.09799 2814 ft 211 kts 28°
2026-05-07 13:39 38.84734 -9.08855 3240 ft 229 kts 26°
2026-05-07 13:39 38.86202 -9.07895 3694 ft 248 kts 26°
2026-05-07 13:39 38.87795 -9.06858 4219 ft 265 kts 27°
2026-05-07 13:40 38.89384 -9.05649 4973 ft 271 kts 36°
2026-05-07 13:40 38.90862 -9.04139 5833 ft 273 kts 42°
2026-05-07 13:40 38.92256 -9.02512 6667 ft 276 kts 44°
2026-05-07 13:40 38.93671 -9.00835 7467 ft 280 kts 44°
2026-05-07 13:41 38.95107 -8.99134 8233 ft 284 kts 44°
2026-05-07 13:41 38.96565 -8.97418 8960 ft 290 kts 43°
2026-05-07 13:41 38.98067 -8.95655 9689 ft 295 kts 43°
2026-05-07 13:41 38.99590 -8.93870 10364 ft 302 kts 43°
2026-05-07 13:42 39.01159 -8.92034 10806 ft 316 kts 43°
2026-05-07 13:42 39.02833 -8.90075 11273 ft 329 kts 43°
2026-05-07 13:42 39.04560 -8.88055 11753 ft 341 kts 43°
2026-05-07 13:42 39.06317 -8.85999 12414 ft 346 kts 43°
2026-05-07 13:43 39.08090 -8.83921 13163 ft 348 kts 42°
2026-05-07 13:43 39.09874 -8.81826 13855 ft 351 kts 42°
2026-05-07 13:43 39.11701 -8.79682 14519 ft 354 kts 41°
2026-05-07 13:43 39.12665 -8.78550 14853 ft 357 kts 41°
2026-05-07 13:44 39.14496 -8.76400 15463 ft 361 kts 41°
2026-05-07 13:44 39.16334 -8.74196 16068 ft 366 kts 43°
2026-05-07 13:44 39.18092 -8.71815 16667 ft 370 kts 46°
2026-05-07 13:44 39.19820 -8.69309 17256 ft 374 kts 47°
2026-05-07 13:45 39.21537 -8.66790 17830 ft 378 kts 46°
2026-05-07 13:45 39.23285 -8.64220 18415 ft 382 kts 46°
2026-05-07 13:45 39.25030 -8.61656 18968 ft 385 kts 46°
2026-05-07 13:45 39.26803 -8.59049 19508 ft 389 kts 46°
2026-05-07 13:46 39.28590 -8.56424 20058 ft 392 kts 46°
2026-05-07 13:46 39.30392 -8.53776 20617 ft 394 kts 46°
2026-05-07 13:46 39.32192 -8.51125 21140 ft 398 kts 45°
2026-05-07 13:46 39.34020 -8.48434 21651 ft 401 kts 45°
2026-05-07 13:47 39.35869 -8.45711 22167 ft 404 kts 45°
2026-05-07 13:47 39.37719 -8.42982 22661 ft 407 kts 45°
2026-05-07 13:47 39.39577 -8.40239 23160 ft 409 kts 45°
2026-05-07 13:47 39.41460 -8.37456 23660 ft 412 kts 45°
2026-05-07 13:48 39.43357 -8.34650 24101 ft 416 kts 45°
2026-05-07 13:48 39.45249 -8.31848 24526 ft 419 kts 45°
2026-05-07 13:48 39.47183 -8.28983 24958 ft 422 kts 45°
2026-05-07 13:48 39.49096 -8.26146 25351 ft 425 kts 44°
2026-05-07 13:49 39.51055 -8.23235 25747 ft 428 kts 44°
2026-05-07 13:49 39.53004 -8.20341 26120 ft 432 kts 44°
2026-05-07 13:49 39.54983 -8.17401 26502 ft 434 kts 44°
2026-05-07 13:49 39.56971 -8.14438 26953 ft 435 kts 44°
2026-05-07 13:50 39.58942 -8.11500 27319 ft 437 kts 44°
2026-05-07 13:50 39.60951 -8.08502 27635 ft 441 kts 44°
2026-05-07 13:50 39.62947 -8.05522 27963 ft 444 kts 43°
2026-05-07 13:50 39.64980 -8.02522 28292 ft 445 kts 41°
2026-05-07 13:51 39.67147 -7.99616 28621 ft 445 kts 38°
2026-05-07 13:51 39.69347 -7.96827 28943 ft 447 kts 38°
2026-05-07 13:51 39.71590 -7.94013 29269 ft 449 kts 38°
2026-05-07 13:51 39.73862 -7.91165 29634 ft 450 kts 37°
2026-05-07 13:52 39.76094 -7.88356 30072 ft 449 kts 37°
2026-05-07 13:52 39.78331 -7.85539 30469 ft 449 kts 37°
2026-05-07 13:52 39.80555 -7.82733 30839 ft 450 kts 37°
2026-05-07 13:52 39.82813 -7.79878 31236 ft 450 kts 37°
2026-05-07 13:53 39.85043 -7.77053 31622 ft 449 kts 37°
2026-05-07 13:53 39.87261 -7.74242 32011 ft 449 kts 37°
2026-05-07 13:53 39.89500 -7.71398 32418 ft 447 kts 37°
2026-05-07 13:53 39.91701 -7.68602 32771 ft 447 kts 36°
2026-05-07 13:54 39.93937 -7.65761 33105 ft 446 kts 36°
2026-05-07 13:54 39.96147 -7.62951 33443 ft 446 kts 36°
2026-05-07 13:54 39.98351 -7.60142 33747 ft 446 kts 36°
2026-05-07 13:54 40.00554 -7.57336 34023 ft 446 kts 36°
2026-05-07 13:55 40.02789 -7.54483 34359 ft 445 kts 36°
2026-05-07 13:55 40.04986 -7.51679 34571 ft 445 kts 36°
2026-05-07 13:55 40.07195 -7.48860 34744 ft 447 kts 36°
2026-05-07 13:55 40.09403 -7.46037 34911 ft 448 kts 36°
2026-05-07 13:56 40.11644 -7.43168 35088 ft 449 kts 36°
2026-05-07 13:56 40.13880 -7.40305 35247 ft 450 kts 37°
2026-05-07 13:56 40.16105 -7.37448 35417 ft 451 kts 37°
2026-05-07 13:56 40.18369 -7.34539 35590 ft 452 kts 37°
2026-05-07 13:57 40.20605 -7.31662 35752 ft 452 kts 37°
2026-05-07 13:57 40.22845 -7.28777 35853 ft 453 kts 37°
2026-05-07 13:57 40.25085 -7.25892 35851 ft 454 kts 38°
2026-05-07 13:58 40.29582 -7.20085 35863 ft 454 kts 38°
2026-05-07 13:58 40.34043 -7.14314 35853 ft 454 kts 38°
2026-05-07 13:59 40.38547 -7.08478 35862 ft 453 kts 38°
2026-05-07 13:59 40.43010 -7.02683 35868 ft 452 kts 38°
2026-05-07 14:00 40.47446 -6.96912 35858 ft 452 kts 38°
2026-05-07 14:00 40.51912 -6.91095 35850 ft 452 kts 38°
2026-05-07 14:01 40.56342 -6.85308 35862 ft 452 kts 38°
2026-05-07 14:01 40.60778 -6.79501 35851 ft 451 kts 38°
2026-05-07 14:02 40.65229 -6.73665 35858 ft 450 kts 38°
2026-05-07 14:02 40.69643 -6.67868 35859 ft 450 kts 38°
2026-05-07 14:03 40.74056 -6.62059 35857 ft 449 kts 38°
2026-05-07 14:03 40.78445 -6.56271 35844 ft 449 kts 38°
2026-05-07 14:04 40.82875 -6.50414 35853 ft 449 kts 38°
2026-05-07 14:04 40.87265 -6.44599 35852 ft 448 kts 39°
2026-05-07 14:05 40.91655 -6.38768 35843 ft 447 kts 39°
2026-05-07 14:05 40.96020 -6.32967 35853 ft 449 kts 39°
2026-05-07 14:06 41.00477 -6.27210 35871 ft 446 kts 37°
2026-05-07 14:06 41.05075 -6.21729 35869 ft 445 kts 36°
2026-05-07 14:07 41.09647 -6.16296 35873 ft 444 kts 37°
2026-05-07 14:07 41.14230 -6.10819 35873 ft 444 kts 37°
2026-05-07 14:08 41.18807 -6.05338 35876 ft 444 kts 37°
2026-05-07 14:08 41.23403 -5.99820 35880 ft 444 kts 37°
2026-05-07 14:09 41.27980 -5.94316 35883 ft 445 kts 37°
2026-05-07 14:09 41.32525 -5.88835 35878 ft 445 kts 37°
2026-05-07 14:10 41.37122 -5.83279 35886 ft 445 kts 37°
2026-05-07 14:10 41.41682 -5.77759 35888 ft 446 kts 38°
2026-05-07 14:11 41.46263 -5.72202 35875 ft 445 kts 38°
2026-05-07 14:11 41.50568 -5.66230 35870 ft 452 kts 46°
2026-05-07 14:11 41.52478 -5.62927 36122 ft 454 kts 51°
2026-05-07 14:12 41.54225 -5.59394 35989 ft 455 kts 56°
2026-05-07 14:12 41.57094 -5.51923 35897 ft 457 kts 63°
2026-05-07 14:13 41.59643 -5.44182 35866 ft 458 kts 63°
2026-05-07 14:13 41.62203 -5.36388 35862 ft 457 kts 63°
2026-05-07 14:14 41.64685 -5.28859 35869 ft 457 kts 64°
2026-05-07 14:14 41.67237 -5.21101 35870 ft 457 kts 64°
2026-05-07 14:15 41.69787 -5.13341 35880 ft 457 kts 64°
2026-05-07 14:15 41.72329 -5.05584 35881 ft 456 kts 64°
2026-05-07 14:16 41.74871 -4.97807 35891 ft 457 kts 65°
2026-05-07 14:16 41.77399 -4.90045 35895 ft 457 kts 65°
2026-05-07 14:17 41.79926 -4.82269 35900 ft 457 kts 65°
2026-05-07 14:17 41.82453 -4.74465 35899 ft 457 kts 65°
2026-05-07 14:18 41.84969 -4.66685 35898 ft 456 kts 65°
2026-05-07 14:18 41.87472 -4.58914 35900 ft 456 kts 65°
2026-05-07 14:19 41.89972 -4.51125 35898 ft 456 kts 66°
2026-05-07 14:19 41.92475 -4.43310 35894 ft 456 kts 66°
2026-05-07 14:20 41.94962 -4.35521 35890 ft 455 kts 66°
2026-05-07 14:20 41.97430 -4.27764 35888 ft 455 kts 67°
2026-05-07 14:21 41.99909 -4.19949 35891 ft 454 kts 67°
2026-05-07 14:21 42.02378 -4.12151 35892 ft 454 kts 66°
2026-05-07 14:22 42.05022 -4.04501 35894 ft 453 kts 65°
2026-05-07 14:22 42.07725 -3.96879 35897 ft 452 kts 65°
2026-05-07 14:23 42.10415 -3.89257 35893 ft 452 kts 65°
2026-05-07 14:23 42.13093 -3.81630 35898 ft 452 kts 65°
2026-05-07 14:24 42.15791 -3.73924 35906 ft 453 kts 65°
2026-05-07 14:24 42.18450 -3.66305 35916 ft 453 kts 65°
2026-05-07 14:25 42.21117 -3.58644 35930 ft 453 kts 65°
2026-05-07 14:25 42.23787 -3.50957 35937 ft 454 kts 65°
2026-05-07 14:26 42.26468 -3.43213 35938 ft 455 kts 65°
2026-05-07 14:26 42.29121 -3.35528 35936 ft 454 kts 65°
2026-05-07 14:27 42.31787 -3.27783 35936 ft 453 kts 66°
2026-05-07 14:27 42.34443 -3.20044 35936 ft 454 kts 66°
2026-05-07 14:28 42.37077 -3.12344 35932 ft 454 kts 66°
2026-05-07 14:28 42.39731 -3.04565 35929 ft 454 kts 66°
2026-05-07 14:29 42.42324 -2.96822 35932 ft 454 kts 69°
2026-05-07 14:29 42.44295 -2.88731 35933 ft 453 kts 78°
2026-05-07 14:30 42.45347 -2.80422 35926 ft 450 kts 86°
2026-05-07 14:30 42.45596 -2.71968 35928 ft 449 kts 91°
2026-05-07 14:31 42.45683 -2.63579 35927 ft 449 kts 91°
2026-05-07 14:31 42.45783 -2.55165 35926 ft 449 kts 91°
2026-05-07 14:32 42.45890 -2.46712 35926 ft 449 kts 91°
2026-05-07 14:32 42.46004 -2.38324 35927 ft 450 kts 90°
2026-05-07 14:33 42.46606 -2.29864 35922 ft 452 kts 83°
2026-05-07 14:33 42.47883 -2.21509 35918 ft 453 kts 79°
2026-05-07 14:34 42.49284 -2.13208 35918 ft 453 kts 79°
2026-05-07 14:34 42.50669 -2.04914 35921 ft 453 kts 79°
2026-05-07 14:35 42.52040 -1.96605 35925 ft 453 kts 80°
2026-05-07 14:35 42.53400 -1.88316 35924 ft 453 kts 80°
2026-05-07 14:36 42.54760 -1.79977 35918 ft 453 kts 80°
2026-05-07 14:36 42.56110 -1.71658 35926 ft 453 kts 80°
2026-05-07 14:37 42.57451 -1.63363 35938 ft 453 kts 81°
2026-05-07 14:37 42.59454 -1.50872 35936 ft 453 kts 81°
2026-05-07 14:38 42.60781 -1.42543 35949 ft 454 kts 81°
2026-05-07 14:38 42.62110 -1.34167 35940 ft 454 kts 81°
2026-05-07 14:39 42.63429 -1.25832 35941 ft 454 kts 82°
2026-05-07 14:39 42.64744 -1.17472 35941 ft 454 kts 82°
2026-05-07 14:40 42.66050 -1.09122 35950 ft 454 kts 82°
2026-05-07 14:40 42.67349 -1.00768 35939 ft 454 kts 82°
2026-05-07 14:41 42.68644 -0.92398 35668 ft 453 kts 82°
2026-05-07 14:41 42.69290 -0.88204 35788 ft 454 kts 82°
2026-05-07 14:41 42.69931 -0.84032 35860 ft 456 kts 82°
2026-05-07 14:42 42.71220 -0.75606 35929 ft 457 kts 82°
2026-05-07 14:42 42.72504 -0.67188 35959 ft 458 kts 82°
2026-05-07 14:43 42.73788 -0.58726 35963 ft 458 kts 82°
2026-05-07 14:43 42.75066 -0.50245 35961 ft 459 kts 82°
2026-05-07 14:44 42.76332 -0.41797 35975 ft 458 kts 82°
2026-05-07 14:44 42.77596 -0.33319 35954 ft 458 kts 83°
2026-05-07 14:45 42.79161 -0.24919 35961 ft 462 kts 74°
2026-05-07 14:45 42.81769 -0.16922 35973 ft 468 kts 63°
2026-05-07 14:46 42.85447 -0.09559 35985 ft 471 kts 53°
2026-05-07 14:46 42.89602 -0.02686 35984 ft 472 kts 52°
2026-05-07 14:47 42.93778 0.04192 35978 ft 471 kts 52°
2026-05-07 14:47 42.97912 0.11074 35971 ft 471 kts 52°
2026-05-07 14:48 43.02040 0.17987 35972 ft 471 kts 52°
2026-05-07 14:48 43.06160 0.24907 35975 ft 470 kts 52°
2026-05-07 14:49 43.10281 0.31845 35963 ft 470 kts 52°
2026-05-07 14:49 43.14380 0.38766 35964 ft 470 kts 52°
2026-05-07 14:50 43.18483 0.45707 35958 ft 470 kts 52°
2026-05-07 14:50 43.22594 0.52679 35958 ft 469 kts 52°
2026-05-07 14:51 43.26663 0.59598 35950 ft 469 kts 52°
2026-05-07 14:51 43.30760 0.66578 35944 ft 468 kts 52°
2026-05-07 14:52 43.34827 0.73525 35940 ft 468 kts 52°
2026-05-07 14:52 43.38879 0.80465 35933 ft 467 kts 52°
2026-05-07 14:53 43.42937 0.87429 35935 ft 467 kts 52°
2026-05-07 14:53 43.46983 0.94388 35932 ft 467 kts 52°
2026-05-07 14:54 43.51079 1.01453 35928 ft 472 kts 52°
2026-05-07 14:54 43.55203 1.08584 35930 ft 478 kts 52°
2026-05-07 14:55 43.59300 1.15685 35925 ft 478 kts 52°
2026-05-07 14:55 43.63439 1.22877 35929 ft 477 kts 52°
2026-05-07 14:56 43.67549 1.30038 35932 ft 477 kts 52°
2026-05-07 14:56 43.71522 1.37281 35936 ft 476 kts 54°
2026-05-07 14:57 43.75434 1.44671 35935 ft 476 kts 54°
2026-05-07 14:57 43.79349 1.52053 35939 ft 477 kts 54°
2026-05-07 14:58 43.83258 1.59418 35942 ft 477 kts 54°
2026-05-07 14:58 43.87183 1.66823 35942 ft 476 kts 54°
2026-05-07 14:59 43.91099 1.74233 35945 ft 476 kts 54°
2026-05-07 14:59 43.94978 1.81594 35951 ft 475 kts 54°
2026-05-07 15:00 43.98792 1.89094 35953 ft 474 kts 56°
2026-05-07 15:00 44.02510 1.96595 35956 ft 473 kts 56°
2026-05-07 15:01 44.06250 2.04141 35953 ft 473 kts 56°
2026-05-07 15:01 44.09963 2.11636 35955 ft 473 kts 56°
2026-05-07 15:02 44.13685 2.19162 35962 ft 473 kts 56°
2026-05-07 15:02 44.17421 2.26735 35959 ft 475 kts 56°
2026-05-07 15:03 44.21133 2.34279 35961 ft 476 kts 56°
2026-05-07 15:03 44.24874 2.41902 35965 ft 476 kts 56°
2026-05-07 15:04 44.28590 2.49493 35970 ft 476 kts 56°
2026-05-07 15:04 44.32291 2.57076 35977 ft 476 kts 56°
2026-05-07 15:05 44.36015 2.64727 35982 ft 476 kts 56°
2026-05-07 15:05 44.39717 2.72348 35982 ft 477 kts 56°
2026-05-07 15:06 44.43433 2.80023 35982 ft 476 kts 56°
2026-05-07 15:06 44.47136 2.87688 35982 ft 476 kts 56°
2026-05-07 15:07 44.50818 2.95334 35977 ft 477 kts 56°
2026-05-07 15:07 44.54522 3.03045 35975 ft 476 kts 56°
2026-05-07 15:08 44.58196 3.10712 35971 ft 476 kts 56°
2026-05-07 15:08 44.61770 3.18520 35970 ft 476 kts 60°
2026-05-07 15:09 44.65045 3.26631 35970 ft 477 kts 61°
2026-05-07 15:09 44.68294 3.34793 35970 ft 477 kts 61°
2026-05-07 15:10 44.71550 3.42954 35971 ft 478 kts 61°
2026-05-07 15:10 44.74779 3.51066 35971 ft 478 kts 61°
2026-05-07 15:11 44.78037 3.59267 35972 ft 477 kts 60°
2026-05-07 15:11 44.81256 3.67386 35974 ft 477 kts 62°
2026-05-07 15:12 44.84506 3.75615 35976 ft 477 kts 61°
2026-05-07 15:12 44.87709 3.83747 35978 ft 477 kts 61°
2026-05-07 15:13 44.90927 3.91948 35977 ft 478 kts 61°
2026-05-07 15:13 44.94143 4.00162 35980 ft 478 kts 61°
2026-05-07 15:14 44.97369 4.08433 35989 ft 479 kts 61°
2026-05-07 15:14 45.00471 4.16774 35988 ft 479 kts 66°
2026-05-07 15:15 45.02817 4.25594 35980 ft 478 kts 75°
2026-05-07 15:15 45.04234 4.34721 35973 ft 477 kts 83°
2026-05-07 15:16 45.04974 4.44025 35986 ft 477 kts 85°
2026-05-07 15:16 45.05650 4.53325 35975 ft 477 kts 85°
2026-05-07 15:17 45.06347 4.62674 35972 ft 477 kts 85°
2026-05-07 15:17 45.07043 4.71996 35967 ft 477 kts 86°
2026-05-07 15:18 45.07731 4.81276 35969 ft 478 kts 86°
2026-05-07 15:18 45.08414 4.90604 35960 ft 478 kts 86°
2026-05-07 15:19 45.09092 4.99950 35956 ft 479 kts 86°
2026-05-07 15:19 45.09761 5.09316 35947 ft 480 kts 85°
2026-05-07 15:20 45.10112 5.18657 35941 ft 478 kts 92°
2026-05-07 15:20 45.09776 5.28064 35954 ft 478 kts 96°
2026-05-07 15:21 45.09331 5.37404 35962 ft 478 kts 96°
2026-05-07 15:21 45.08932 5.46797 35974 ft 479 kts 95°
2026-05-07 15:22 45.08589 5.56159 35976 ft 479 kts 95°
2026-05-07 15:22 45.08232 5.65503 35979 ft 479 kts 96°
2026-05-07 15:23 45.07860 5.74952 35992 ft 479 kts 96°
2026-05-07 15:23 45.07426 5.84345 35993 ft 479 kts 97°
2026-05-07 15:24 45.06810 5.93650 36001 ft 479 kts 98°
2026-05-07 15:24 45.06173 6.03005 35988 ft 480 kts 98°
2026-05-07 15:25 45.05535 6.12358 35978 ft 480 kts 98°
2026-05-07 15:25 45.04893 6.21699 35971 ft 480 kts 98°
2026-05-07 15:26 45.04238 6.31084 35966 ft 481 kts 98°
2026-05-07 15:26 45.03581 6.40398 35977 ft 471 kts 98°
2026-05-07 15:27 45.02925 6.49550 35987 ft 470 kts 98°
2026-05-07 15:27 45.02264 6.58663 35930 ft 468 kts 98°
2026-05-07 15:28 45.01929 6.63240 35417 ft 472 kts 98°
2026-05-07 15:28 45.01590 6.67859 34539 ft 483 kts 98°
2026-05-07 15:28 45.01243 6.72639 33603 ft 487 kts 98°
2026-05-07 15:28 45.00903 6.77315 32870 ft 488 kts 98°
2026-05-07 15:29 45.00554 6.82095 32139 ft 487 kts 98°
2026-05-07 15:29 45.00211 6.86804 31371 ft 487 kts 98°
2026-05-07 15:29 44.99858 6.91585 30564 ft 488 kts 98°
2026-05-07 15:29 44.99507 6.96309 29751 ft 489 kts 98°
2026-05-07 15:30 44.99147 7.01101 28963 ft 489 kts 97°
2026-05-07 15:30 44.98792 7.05828 28376 ft 484 kts 97°
2026-05-07 15:30 44.98438 7.10507 27873 ft 477 kts 97°
2026-05-07 15:30 44.98136 7.15118 27394 ft 471 kts 94°
2026-05-07 15:31 44.98027 7.19672 26926 ft 465 kts 91°
2026-05-07 15:31 44.98043 7.24185 26461 ft 459 kts 90°
2026-05-07 15:31 44.98082 7.28638 26023 ft 453 kts 89°
2026-05-07 15:31 44.98118 7.33086 25293 ft 454 kts 89°
2026-05-07 15:32 44.98118 7.37522 24583 ft 453 kts 91°
2026-05-07 15:32 44.97982 7.41925 24038 ft 448 kts 90°
2026-05-07 15:32 44.98437 7.46194 23426 ft 443 kts 70°
2026-05-07 15:32 44.99597 7.50185 22930 ft 436 kts 65°
2026-05-07 15:33 45.00798 7.54067 22352 ft 433 kts 65°
2026-05-07 15:33 45.01981 7.57921 21757 ft 430 kts 65°
2026-05-07 15:33 45.03142 7.61767 21184 ft 426 kts 65°
2026-05-07 15:33 45.04266 7.65545 20641 ft 423 kts 66°
2026-05-07 15:34 45.05389 7.69355 20074 ft 419 kts 66°
2026-05-07 15:34 45.06496 7.73133 19525 ft 415 kts 67°
2026-05-07 15:34 45.07578 7.76843 18996 ft 411 kts 67°
2026-05-07 15:34 45.08666 7.80586 18452 ft 407 kts 67°
2026-05-07 15:35 45.09730 7.84258 17923 ft 404 kts 67°
2026-05-07 15:35 45.10793 7.87927 17402 ft 400 kts 67°
2026-05-07 15:35 45.11837 7.91543 16869 ft 396 kts 67°
2026-05-07 15:35 45.12868 7.95115 16353 ft 393 kts 67°
2026-05-07 15:36 45.13889 7.98661 15819 ft 390 kts 67°
2026-05-07 15:36 45.14904 8.02187 15315 ft 386 kts 67°
2026-05-07 15:36 45.15907 8.05679 14821 ft 382 kts 67°
2026-05-07 15:36 45.16902 8.09150 14088 ft 385 kts 67°
2026-05-07 15:37 45.17907 8.12655 13171 ft 392 kts 67°
2026-05-07 15:37 45.18941 8.16268 12501 ft 390 kts 67°
2026-05-07 15:37 45.19947 8.19791 11983 ft 385 kts 67°
2026-05-07 15:37 45.20942 8.23278 11452 ft 381 kts 67°
2026-05-07 15:38 45.21923 8.26722 10875 ft 377 kts 67°
2026-05-07 15:38 45.22876 8.30073 10598 ft 358 kts 67°
2026-05-07 15:38 45.23780 8.33259 10190 ft 338 kts 67°
2026-05-07 15:38 45.24633 8.36265 9809 ft 319 kts 67°
2026-05-07 15:39 45.25433 8.39093 9507 ft 302 kts 67°
2026-05-07 15:39 45.26188 8.41761 9166 ft 288 kts 67°
2026-05-07 15:39 45.26926 8.44365 8607 ft 284 kts 67°
2026-05-07 15:39 45.27653 8.46931 7978 ft 281 kts 68°
2026-05-07 15:40 45.28379 8.49498 7393 ft 281 kts 68°
2026-05-07 15:40 45.29100 8.52051 6988 ft 278 kts 68°
2026-05-07 15:40 45.29806 8.54561 6662 ft 274 kts 68°
2026-05-07 15:40 45.30512 8.57068 6316 ft 272 kts 69°
2026-05-07 15:41 45.31209 8.59552 5935 ft 272 kts 69°
2026-05-07 15:41 45.31908 8.62049 5570 ft 270 kts 69°
2026-05-07 15:41 45.32597 8.64510 5212 ft 269 kts 68°
2026-05-07 15:41 45.33285 8.66968 4860 ft 267 kts 69°
2026-05-07 15:42 45.33967 8.69407 4557 ft 264 kts 69°
2026-05-07 15:42 45.34633 8.71789 4391 ft 255 kts 69°
2026-05-07 15:42 45.35278 8.74097 4228 ft 246 kts 69°
2026-05-07 15:42 45.35891 8.76293 4075 ft 238 kts 69°
2026-05-07 15:43 45.36620 8.78354 3853 ft 233 kts 49°
2026-05-07 15:43 45.37952 8.79651 3538 ft 234 kts 17°
2026-05-07 15:43 45.39545 8.79843 3250 ft 233 kts 355°
2026-05-07 15:43 45.41132 8.79489 3076 ft 227 kts 349°
2026-05-07 15:44 45.42642 8.79034 2983 ft 216 kts 348°
2026-05-07 15:44 45.44064 8.78600 2997 ft 199 kts 349°
2026-05-07 15:44 45.45351 8.78224 3015 ft 182 kts 349°
2026-05-07 15:44 45.46574 8.77879 2993 ft 180 kts 350°
2026-05-07 15:45 45.47802 8.77541 2986 ft 180 kts 350°
2026-05-07 15:45 45.49046 8.77200 2984 ft 180 kts 350°
2026-05-07 15:45 45.50272 8.76864 2878 ft 180 kts 350°
2026-05-07 15:45 45.51493 8.76529 2652 ft 178 kts 349°
2026-05-07 15:46 45.53813 8.75891 2213 ft 155 kts 349°
2026-05-07 15:46 45.54824 8.75612 1991 ft 143 kts 349°
2026-05-07 15:46 45.55792 8.75346 1819 ft 142 kts 349°
2026-05-07 15:47 45.56774 8.75075 1646 ft 142 kts 349°
2026-05-07 15:47 45.57736 8.74810 1467 ft 142 kts 349°
2026-05-07 15:47 45.58705 8.74539 1281 ft 141 kts 348°
2026-05-07 15:47 45.59666 8.74269 1095 ft 140 kts 350°
2026-05-07 15:48 45.60622 8.74022 918 ft 140 kts 349°
2026-05-07 15:48 45.61574 8.73758 754 ft 139 kts 348°
2026-05-07 15:48 45.62476 8.73508 718 ft 115 kts 350°
2026-05-07 15:48 45.63094 8.73338 732 ft 71 kts 349°
2026-05-07 15:49 45.63493 8.73227 740 ft 44 kts 347°
2026-05-07 15:49 45.63709 8.73089 745 ft 29 kts 320°
2026-05-07 15:49 45.63829 8.72891 749 ft 22 kts 309°
2026-05-07 15:49 45.63942 8.72793 751 ft 18 kts 349°
2026-05-07 15:50 45.64061 8.72760 753 ft 16 kts 350°
2026-05-07 15:50 45.64172 8.72732 756 ft 15 kts 349°
2026-05-07 15:50 45.64274 8.72703 758 ft 14 kts 348°
2026-05-07 15:50 45.64366 8.72680 760 ft 13 kts 358°
2026-05-07 15:51 45.64447 8.72669 761 ft 10 kts 338°
2026-05-07 15:51 45.64472 8.72589 762 ft 10 kts 259°
2026-05-07 15:51 45.64458 8.72488 762 ft 10 kts 259°
2026-05-07 15:51 45.64444 8.72381 763 ft 11 kts 259°
2026-05-07 15:52 45.64454 8.72313 763 ft 7 kts 325°
2026-05-07 15:52 45.64498 8.72295 764 ft 6 kts 349°
2026-05-07 15:52 45.64518 8.72290 764 ft 0 kts 348°